sat.trackr.live / text

‹ back to catalog

DONGPO 05

NORAD 53449 · 2022-098F

PAYLOAD ACTIVE UNKNOWN

§ Identity

Operator
Country
PRC
Launch date
2022-08-10
Launch site
TAISC
Launch vehicle
Mass (kg)
RCS (m²)

External: N2YO · Heavens-Above · Gunter

§ Orbital elements

Epoch: 2026-08-17T16:22:11.192736Z

Period
88.43 min
Inclination
97.5440°
Eccentricity
0.0012001
Mean motion
16.28409381 rev/d
Perigee alt
188.9 km
Apogee alt
204.7 km
Semi-major
6,575.0 km
B*
8.0791e-4
RAAN
9.1804°
Arg perigee
275.1671°
Mean anomaly
84.8253°
Rev number
22,466

§ Raw data

DONGPO 051 53449U 22098F   26229.68207399  .03092900  25689-5  80791-3 0  99972 53449  97.5440   9.1804 0012001 275.1671  84.8253 16.28409381224663

JSON: /api/v1/satellites/53449 · /tle

For live sub-satellite position, see the globe view (requires WebGL).

§ Visibility from observer

Set your observer location to see the next 7 days of passes ≥ 10°. The values pass through the URL so the page stays shareable.

No JS? Fill the form by hand. The geolocation button needs JavaScript.